Weather History for Sheridan, WY

Change the Weather History Date:

Wednesday, January 25, 2012

  Actual Average Record
Temperature  
Mean Temperature 38 °F 24 °F  
Max Temperature 56 °F 37 °F 60 °F (2002)
Min Temperature 20 °F 12 °F -30 °F (1940)
Degree Days  
Heating Degree Days 27 41  
Month to date heating degree days 951 1034  
Since 1 July heating degree days 3788 4217  
Cooling Degree Days 0 0  
Month to date cooling degree days 0 0  
Year to date cooling degree days 0 0  
Moisture  
Dew Point 22 °F    
Average Humidity 51    
Maximum Humidity 75    
Minimum Humidity 27    
Precipitation  
Precipitation 0.02 in 0.02 in 0.49 in (1918)
Month to date precipitation 0.31 0.44  
Year to date precipitation 0.31 0.44  
Sea Level Pressure  
Sea Level Pressure 29.92 in    
Wind  
Wind Speed 13 mph (NW)    
Max Wind Speed 40 mph    
Max Gust Speed 51 mph    
Visibility 10 miles    
Events Rain    
T = Trace of Precipitation, MM = Missing Value Source: NWS Daily Summary

Daily Weather History Graph

Daily Weather History Graph

Search for Another Location

Airport:

Trip Planner

Search our weather history database for the weather conditions in past years. The results will help you decide how hot, cold, wet, or windy it might be!

Date:

Astronomy

Jan. 25, 2012 Rise Set
Actual Time 7:34 AM MST 5:06 PM MST
Civil Twilight 7:03 AM MST 5:37 PM MST
Nautical Twilight 6:27 AM MST 6:13 PM MST
Astronomical Twilight 5:52 AM MST 6:47 PM MST
Moon 8:26 AM MST (1/25) 8:11 PM MST (1/25)
Length of Visible Light 10h 34m
Length of Day
9h 31m
Waxing Crescent, 7% of the Moon is Illuminated
Jan 25
Waxing Crescent
Jan 30
First Quarter
Feb 7
Full
Feb 14
Last Quarter
Feb 21
New

Hourly Weather History & Observations

Time (MST) Temp. Windchill Dew Point Humidity Pressure Visibility Wind Dir Wind Speed Gust Speed Precip Events Conditions
12:53 AM 21.9 °F - 12.0 °F 66% 29.98 in 10.0 mi Calm Calm - N/A   Clear
1:53 AM 26.1 °F 19.4 °F 12.0 °F 55% 29.96 in 10.0 mi SSW 5.8 mph - N/A   Clear
2:53 AM 24.1 °F 18.2 °F 16.0 °F 71% 29.95 in 10.0 mi West 4.6 mph - N/A   Clear
3:53 AM 24.8 °F - 15.8 °F 69% 29.86 in 10.0 mi Calm Calm - N/A   Clear
4:53 AM 27.0 °F - 19.0 °F 72% 29.91 in 10.0 mi Calm Calm - N/A   Clear
5:53 AM 27.0 °F 23.0 °F 18.0 °F 69% 29.88 in 10.0 mi North 3.5 mph - N/A   Clear
6:53 AM 37.9 °F 32.1 °F 18.0 °F 45% 29.82 in 10.0 mi NNE 8.1 mph - N/A   Clear
7:53 AM 46.0 °F 40.2 °F 19.9 °F 35% 29.82 in 10.0 mi WNW 12.7 mph - N/A   Clear
8:53 AM 37.0 °F 28.1 °F 19.9 °F 50% 29.87 in 10.0 mi WNW 15.0 mph 25.3 mph N/A   Clear
9:13 AM 51.8 °F - 17.6 °F 26% 29.80 in 10.0 mi West 18.4 mph - N/A   Clear
9:53 AM 37.9 °F 32.7 °F 19.0 °F 47% 29.89 in 10.0 mi North 6.9 mph - N/A   Clear
10:53 AM 54.0 °F - 21.0 °F 28% 29.86 in 10.0 mi West 9.2 mph - N/A   Clear
11:53 AM 51.8 °F - 21.2 °F 30% 29.81 in 10.0 mi NW 13.8 mph 29.9 mph N/A   Clear
12:53 PM 55.0 °F - 23.0 °F 29% 29.82 in 10.0 mi West 28.8 mph 38.0 mph N/A   Clear
1:53 PM 52.0 °F - 23.0 °F 32% 29.82 in 10.0 mi West 24.2 mph 39.1 mph N/A   Clear
2:53 PM 52.0 °F - 23.0 °F 32% 29.86 in 10.0 mi West 21.9 mph 29.9 mph N/A   Clear
3:53 PM 52.0 °F - 23.0 °F 32% 29.85 in 10.0 mi WSW 23.0 mph 36.8 mph N/A   Clear
4:53 PM 46.0 °F 37.4 °F 27.0 °F 47% 29.93 in 10.0 mi NNW 25.3 mph 31.1 mph N/A   Overcast
5:06 PM 44.6 °F 36.4 °F 30.2 °F 57% 29.90 in 10.0 mi NNW 20.7 mph 32.2 mph N/A   Overcast
5:53 PM 39.9 °F 27.5 °F 35.1 °F 83% 30.00 in 10.0 mi NNW 35.7 mph 46.0 mph 0.00 in Rain Light Rain
6:53 PM 37.9 °F 30.5 °F 33.1 °F 83% 30.02 in 10.0 mi NW 11.5 mph - 0.02 in   Overcast
7:53 PM 37.9 °F 29.2 °F 28.0 °F 68% 30.01 in 10.0 mi NNW 15.0 mph 24.2 mph N/A   Clear
8:53 PM 36.0 °F 28.0 °F 25.0 °F 64% 30.04 in 10.0 mi NW 11.5 mph - N/A   Clear
9:53 PM 32.0 °F 25.6 °F 24.1 °F 73% 30.08 in 10.0 mi North 6.9 mph - N/A   Clear
10:53 PM 34.0 °F 25.5 °F 23.0 °F 64% 30.04 in 10.0 mi NW 11.5 mph - N/A   Clear
11:53 PM 32.0 °F 23.6 °F 23.0 °F 69% 30.06 in 10.0 mi WNW 10.4 mph - N/A   Clear